Track IRIDIUM 125 now! 10-day predictions IRIDIUM 125 is classified as:
1 42964U 17061K 26249.80660503 .00000083 00000-0 22501-4 0 9996 2 42964 86.4028 351.2741 0002585 93.8617 266.2874 14.34216393466559